Minneapolis Crystal, MN

12:27 AM CST on December 12, 2017 (GMT -0600)
Crystal

Weather History for KMIC - October, 2013

Change the Weather History Date:

Thursday, October 3, 2013

  Actual Average Record
Temperature  
Mean Temperature 57 °F -  
Max Temperature 59 °F 62 °F 89 °F (1997)
Min Temperature 55 °F 39 °F 30 °F (1999)
Degree Days  
Heating Degree Days 8    
Growing Degree Days 7 (Base 50)    
Moisture  
Dew Point 55 °F    
Average Humidity 91    
Maximum Humidity 94    
Minimum Humidity 87    
Precipitation  
Precipitation 0.18 in - - ()
Sea Level Pressure  
Sea Level Pressure 29.87 in    
Wind  
Wind Speed 5 mph (NE)    
Max Wind Speed 10 mph    
Max Gust Speed -    
Visibility 7 miles    
Events Rain    
Averages and records for this station are not official NWS values.
T = Trace of Precipitation, MM = Missing Value Source: NWS Daily Summary

Daily Weather History Graph

Daily Weather History Graph

Search for Another Location

Airport or City:

Trip Planner

Search our weather history database for the weather conditions in past years. The results will help you decide how hot, cold, wet, or windy it might be!

Date:

Astronomy

Oct. 03, 2013 Rise Set
Actual Time 7:14 AM CDT 6:49 PM CDT
Civil Twilight 6:44 AM CDT 7:18 PM CDT
Nautical Twilight 6:10 AM CDT 7:52 PM CDT
Astronomical Twilight 5:36 AM CDT 8:27 PM CDT
Moon 5:46 AM CDT (10/3) 5:59 PM CDT (10/3)
Length of Visible Light 12h 33m
Length of Day
11h 35m
Waning Crescent, 2% of the Moon is Illuminated
Oct 3
Waning Crescent
Oct 4
New
Oct 11
First Quarter
Oct 18
Full
Oct 26
Last Quarter

Hourly Weather History & Observations

Time (CDT) Temp. Dew Point Humidity Pressure Visibility Wind Dir Wind Speed Gust Speed Precip Events Conditions
12:53 AM 57.0 °F 55.0 °F 93% 29.83 in 10.0 mi North 4.6 mph - 0.00 in   Partly Cloudy
1:39 AM 57.2 °F 55.4 °F 94% 29.85 in 10.0 mi NNE 3.5 mph - N/A   Overcast
1:53 AM 57.0 °F 54.0 °F 89% 29.85 in 10.0 mi NNE 4.6 mph - N/A   Overcast
2:44 AM 57.2 °F 53.6 °F 88% 29.88 in 10.0 mi Calm Calm - N/A   Overcast
2:53 AM 57.0 °F 54.0 °F 89% 29.87 in 10.0 mi NNE 3.5 mph - N/A   Overcast
3:53 AM 55.9 °F 54.0 °F 93% 29.86 in 10.0 mi NNE 4.6 mph - N/A   Overcast
4:53 AM 55.9 °F 54.0 °F 93% 29.86 in 10.0 mi NE 3.5 mph - N/A   Overcast
5:53 AM 55.9 °F 54.0 °F 93% 29.86 in 9.0 mi NNE 5.8 mph - N/A   Overcast
6:53 AM 55.9 °F 54.0 °F 93% 29.87 in 10.0 mi NE 3.5 mph - N/A   Overcast
7:18 AM 55.4 °F 53.6 °F 94% 29.88 in 6.0 mi ENE 3.5 mph - N/A   Overcast
7:53 AM 57.0 °F 54.0 °F 89% 29.87 in 4.0 mi North 5.8 mph - N/A   Overcast
8:53 AM 57.0 °F 55.0 °F 93% 29.88 in 2.0 mi NNE 4.6 mph - 0.00 in Rain Light Rain
9:02 AM 57.2 °F 55.4 °F 94% 29.88 in 1.2 mi NE 5.8 mph - 0.00 in Rain Light Rain
9:53 AM 57.0 °F 55.0 °F 93% 29.88 in 1.2 mi North 6.9 mph - 0.03 in Rain Light Rain
10:15 AM 57.2 °F 55.4 °F 94% 29.87 in 2.5 mi NE 5.8 mph - 0.01 in Rain Light Rain
10:22 AM 57.2 °F 55.4 °F 94% 29.87 in 2.5 mi NNE 6.9 mph - 0.01 in Rain Light Rain
10:38 AM 57.2 °F 55.4 °F 94% 29.87 in 5.0 mi NE 4.6 mph - 0.02 in   Overcast
10:53 AM 57.0 °F 55.0 °F 93% 29.88 in 7.0 mi NE 5.8 mph - 0.02 in   Overcast
11:53 AM 57.9 °F 55.0 °F 90% 29.87 in 7.0 mi NE 3.5 mph - 0.01 in Rain Light Rain
12:15 PM 57.2 °F 55.4 °F 94% 29.88 in 1.8 mi Variable 3.5 mph - 0.06 in Rain Heavy Rain
12:26 PM 57.2 °F 55.4 °F 94% 29.87 in 3.0 mi ENE 3.5 mph - 0.08 in Rain Light Rain
12:31 PM 57.2 °F 55.4 °F 94% 29.87 in 4.0 mi East 8.1 mph - 0.09 in Rain Light Rain
12:49 PM 57.2 °F 55.4 °F 94% 29.86 in 7.0 mi NE 6.9 mph - 0.09 in Rain Light Rain
12:53 PM 57.9 °F 55.0 °F 90% 29.86 in 7.0 mi NE 5.8 mph - 0.09 in Rain Light Rain
1:19 PM 57.2 °F 55.4 °F 94% 29.85 in 7.0 mi NE 6.9 mph - 0.00 in   Overcast
1:53 PM 59.0 °F 55.9 °F 90% 29.86 in 8.0 mi NNE 8.1 mph - 0.00 in   Overcast
2:53 PM 59.0 °F 55.9 °F 90% 29.86 in 9.0 mi North 10.4 mph - N/A   Overcast
3:53 PM 57.9 °F 55.0 °F 90% 29.86 in 10.0 mi NNE 6.9 mph - 0.01 in   Overcast
4:53 PM 57.9 °F 54.0 °F 87% 29.87 in 10.0 mi NNE 9.2 mph - N/A   Overcast
5:53 PM 57.9 °F 54.0 °F 87% 29.88 in 10.0 mi NE 8.1 mph - N/A   Overcast
6:53 PM 57.9 °F 54.0 °F 87% 29.88 in 10.0 mi NE 4.6 mph - N/A   Overcast
7:53 PM 57.9 °F 54.0 °F 87% 29.88 in 10.0 mi NE 5.8 mph - N/A   Overcast
8:53 PM 57.0 °F 54.0 °F 89% 29.89 in 10.0 mi NE 6.9 mph - N/A   Overcast
9:53 PM 57.0 °F 53.1 °F 87% 29.92 in 7.0 mi North 5.8 mph - 0.00 in Rain Light Rain
11:53 PM 55.0 °F 52.0 °F 89% 29.94 in 7.0 mi North 8.1 mph - 0.02 in   Overcast